Lid_Strength_Index
12 12 11 12 12 12 13 13 15 14 14 13 12 12 14 14 14 15 15 15 15 16 14 13 13 12 12 12 11 11 10 10 10 9 9 9 8 8 6 4 3 3 3 3
14 12 13 14 13 12 13 13 13 13 13 10 10 13 14 14 15 16 16 15 14 14 13 13 12 12 12 12 11 10 10 10 9 9 9 9 8 6 5 4 3 3 3 3
17 13 14 17 15 13 13 12 12 15 12 10 12 14 14 15 15 16 15 14 14 14 13 13 13 12 12 12 10 10 10 9 9 9 9 8 6 5 5 4 4 4 3 3
18 16 21 14 11 11 12 11 10 12 10 10 11 13 14 15 15 15 14 14 14 13 13 13 13 12 12 11 11 10 10 10 9 9 8 7 5 5 5 5 5 4 3 4
18 18 16 15 16 12 13 13 10 12 10 9 12 15 15 14 13 14 14 14 14 13 13 13 13 12 12 11 11 10 11 10 9 8 7 6 6 6 6 6 5 4 4 4
18 19 21 17 14 12 12 16 13 13 11 15 13 17 17 14 14 14 14 13 13 12 12 13 13 12 12 12 12 12 11 10 8 6 6 6 6 6 5 6 5 4 5 5
18 19 18 14 14 13 18 17 14 13 13 14 14 15 14 13 14 13 13 13 12 13 13 14 13 12 13 12 12 11 9 8 7 6 6 6 6 6 6 5 5 5 5 5
18 19 20 12 14 15 15 15 15 13 13 14 14 13 14 14 14 14 14 13 13 14 14 13 13 13 13 13 11 9 8 7 7 7 6 6 6 6 6 5 6 6 6 6
16 16 13 15 15 14 14 15 15 14 13 13 14 15 14 15 14 14 14 14 14 14 14 13 13 13 13 12 9 8 7 8 8 8 7 7 7 7 7 6 6 7 7 7
15 14 15 14 14 14 14 14 13 13 13 14 15 15 15 15 15 15 14 15 14 14 14 14 13 12 12 10 8 8 9 9 9 8 8 7 7 7 7 7 7 7 8 8
16 14 14 14 14 14 13 13 13 13 14 14 14 15 15 15 15 15 15 14 14 14 14 14 13 12 10 9 8 9 9 9 9 8 8 8 8 7 7 7 7 7 7 8
16 14 14 15 14 13 13 13 13 14 14 13 14 15 15 15 15 15 15 15 14 14 14 13 12 11 10 9 10 10 10 10 10 9 8 8 8 8 6 7 7 7 6 7
14 12 13 13 13 12 13 13 13 13 13 14 14 14 14 15 15 14 15 15 15 14 12 11 10 10 10 10 10 10 11 10 11 11 9 8 8 8 9 7 6 7 7 7
11 12 14 13 14 12 12 12 11 12 13 13 13 13 13 14 15 16 16 15 14 13 12 12 12 12 11 10 11 12 12 10 12 12 10 9 9 8 8 8 8 8 7 8
12 12 13 12 12 12 11 12 13 13 13 13 13 13 13 14 15 16 17 15 15 16 16 16 16 14 14 15 15 15 12 14 14 13 12 11 9 8 8 8 8 8 8 9
12 12 12 12 13 13 12 13 14 14 13 13 13 13 12 12 13 13 13 14 14 14 15 17 18 15 14 14 14 14 13 14 13 12 12 11 10 9 9 8 8 8 9 9
14 14 13 13 13 13 13 13 13 13 13 12 12 11 11 11 11 13 13 13 13 15 15 16 14 14 12 11 11 12 13 12 13 12 12 11 11 11 10 8 8 8 9 11
11 12 12 12 13 13 13 12 12 12 11 10 11 13 13 13 11 12 13 14 17 17 14 12 12 12 12 10 10 11 12 12 13 13 11 12 11 10 10 9 8 8 8 10
11 12 12 12 12 12 12 11 11 10 11 11 12 12 12 11 12 12 14 16 15 14 11 11 10 10 10 9 10 11 13 13 14 12 12 13 12 11 11 9 8 8 8 9
12 11 10 11 10 11 11 10 9 9 9 11 15 15 14 15 15 16 16 14 11 10 9 9 9 9 9 9 11 12 13 14 13 13 15 13 13 13 11 11 10 9 8 8
11 10 10 10 11 11 12 12 11 11 15 16 14 14 15 16 17 18 16 11 9 9 8 9 8 8 9 11 13 12 13 16 17 15 15 14 13 13 13 11 10 9 8 8
11 12 11 11 10 9 9 9 9 10 9 12 18 18 17 15 15 14 11 9 8 10 9 9 9 9 10 13 12 13 13 13 14 16 16 16 16 15 14 12 11 10 9 8
10 10 10 12 11 9 9 11 14 11 9 11 14 13 12 9 8 8 9 8 9 9 8 8 9 10 11 12 12 12 13 14 16 16 16 16 17 16 14 13 11 10 9 8
11 10 10 10 10 12 12 13 11 11 13 13 14 14 10 11 14 10 9 9 10 10 11 11 10 10 10 10 11 13 15 15 16 17 16 19 17 16 14 13 12 11 9 8
11 10 11 12 12 12 11 11 13 14 14 12 14 13 12 12 15 14 15 15 15 14 14 15 15 14 14 15 15 16 17 17 17 15 17 17 15 15 14 15 13 12 10 9
9 10 10 9 10 11 11 12 14 15 15 18 18 20 20 17 15 16 17 18 17 16 18 20 21 20 19 18 18 18 17 16 17 17 17 16 14 14 14 13 14 12 10 10
10 11 10 11 11 12 13 14 16 17 17 20 19 21 19 21 21 20 20 22 21 20 20 19 19 18 17 17 17 17 17 16 16 15 16 16 14 13 12 14 15 13 12 11